GW0935 Weather Reports


Display with metric or nautical units.
time (UTC)temp
F
wind
direction
speed
MPH
gust
MPH
rain 1hr
in
rain 24hr
in
rain mn
in
humidity
%
barometer
mb
20260502184400 60 14 0.0 1.0 0.00 0.06 0.01 66 1012.3
20260502184159 60 14 0.0 1.0 0.00 0.06 0.01 66 1012.3
20260502184001 60 24 0.0 1.0 0.00 0.06 0.01 66 1012.4
20260502183759 60 155 0.0 0.0 0.00 0.06 0.01 67 1012.4
20260502183600 60 156 0.0 0.0 0.00 0.06 0.01 67 1012.5
20260502183200 60 156 0.0 0.0 0.00 0.06 0.01 66 1012.5
20260502182959 60 156 0.0 0.0 0.00 0.06 0.01 66 1012.6
20260502182800 60 156 0.0 0.0 0.00 0.06 0.01 66 1012.5
20260502182600 60 157 0.0 0.0 0.00 0.06 0.01 66 1012.5
20260502182401 60 156 0.0 0.0 0.00 0.06 0.01 66 1012.5
20260502182159 60 156 0.0 0.0 0.00 0.06 0.01 64 1012.6
20260502182001 60 156 0.0 0.0 0.00 0.06 0.01 63 1012.7
20260502181758 60 156 0.0 0.0 0.00 0.06 0.01 63 1012.6
20260502181601 60 156 0.0 0.0 0.00 0.06 0.01 63 1012.6
20260502181359 60 156 0.0 1.0 0.00 0.06 0.01 62 1012.6
20260502181200 61 157 0.0 2.0 0.00 0.06 0.01 62 1012.7
20260502181000 61 156 0.0 2.0 0.00 0.06 0.01 62 1012.6
20260502180800 61 157 0.0 2.0 0.00 0.06 0.01 61 1012.6
20260502180559 61 156 1.0 2.0 0.00 0.06 0.01 61 1012.7
20260502180401 61 155 1.0 2.0 0.00 0.06 0.01 60 1012.6
20260502180158 61 217 0.0 0.0 0.00 0.06 0.01 61 1012.7
20260502170400 62 127 0.0 2.0 0.00 0.06 0.01 59 1012.7
20260502170159 62 93 0.0 2.0 0.00 0.06 0.01 60 1012.7
20260502164159 62 155 2.0 4.0 0.00 0.06 0.01 59 1012.9
20260502163758 62 38 0.0 3.0 0.00 0.06 0.01 61 1013.0
20260502163358 62 355 0.0 3.0 0.00 0.06 0.01 60 1013.0
20260502163159 62 349 0.0 3.0 0.00 0.06 0.01 60 1013.0
20260502162759 62 151 0.0 3.0 0.00 0.06 0.01 60 1013.1
20260502162559 62 67 0.0 3.0 0.00 0.06 0.01 60 1013.1
20260502162358 62 96 1.0 3.0 0.00 0.06 0.01 60 1013.1
20260502162000 62 56 0.0 2.0 0.00 0.06 0.01 60 1013.1
20260502161759 62 128 1.0 2.0 0.00 0.06 0.01 61 1013.2
20260502161600 62 131 0.0 3.0 0.00 0.06 0.01 60 1013.2
20260502161201 63 1 1.0 3.0 0.00 0.06 0.01 59 1013.3
20260502160959 63 341 1.0 3.0 0.00 0.06 0.01 59 1013.2
20260502160800 63 8 1.0 3.0 0.00 0.06 0.01 59 1013.3
20260502160559 63 19 0.0 3.0 0.00 0.06 0.01 59 1013.4
20260502160400 63 69 0.0 3.0 0.00 0.06 0.01 60 1013.3
20260502160159 63 18 0.0 3.0 0.00 0.06 0.01 60 1013.3
20260502152158 64 22 1.0 2.0 0.00 0.06 0.01 57 1013.6
20260502151759 64 146 0.0 2.0 0.00 0.06 0.01 57 1013.6
20260502151601 64 136 0.0 2.0 0.00 0.06 0.01 57 1013.6
20260502151359 64 136 1.0 2.0 0.00 0.06 0.01 57 1013.6
20260502151158 64 68 0.0 0.0 0.00 0.06 0.01 57 1013.6
20260502151000 63 126 0.0 0.0 0.00 0.06 0.01 57 1013.6
20260502150759 63 219 0.0 1.0 0.00 0.06 0.01 57 1013.6
20260502150559 64 219 0.0 3.0 0.00 0.06 0.01 58 1013.7
20260502150359 63 219 0.0 3.0 0.00 0.06 0.01 58 1013.8
20260502150159 63 222 0.0 3.0 0.00 0.06 0.01 59 1013.7
20260502130601 63 159 2.0 5.0 0.00 0.06 0.01 60 1015.0
20260502130359 63 203 2.0 6.0 0.00 0.06 0.01 61 1015.0
20260502130201 62 232 1.0 6.0 0.00 0.06 0.01 61 1015.0
20260502123557 61 326 2.0 4.0 0.00 0.06 0.01 66 1015.7
20260502123358 61 148 1.0 3.0 0.00 0.06 0.01 67 1015.6
20260502123158 61 171 0.0 2.0 0.00 0.06 0.01 64 1015.6
20260502123003 61 347 0.0 4.0 0.00 0.06 0.01 65 1015.6
20260502122759 61 23 0.0 4.0 0.00 0.06 0.01 65 1015.7
20260502122357 61 162 1.0 4.0 0.00 0.06 0.01 65 1015.7
20260502122158 61 91 2.0 4.0 0.00 0.06 0.01 65 1015.7
20260502121958 61 230 1.0 4.0 0.00 0.06 0.01 65 1015.8
20260502121758 61 280 1.0 4.0 0.00 0.06 0.01 67 1015.8
20260502121558 61 166 1.0 4.0 0.00 0.06 0.01 67 1015.8
20260502121357 61 222 1.0 4.0 0.00 0.06 0.01 67 1015.9
20260502121158 61 143 2.0 4.0 0.00 0.06 0.01 67 1015.9
20260502120959 61 80 1.0 4.0 0.00 0.06 0.01 68 1016.0
20260502120758 61 165 1.0 4.0 0.00 0.06 0.01 69 1015.9
20260502120558 60 89 0.0 4.0 0.00 0.06 0.01 69 1015.9
20260502120358 59 94 0.0 4.0 0.00 0.06 0.01 69 1016.0
20260502120158 59 162 1.0 4.0 0.00 0.06 0.01 69 1016.0
20260502115557 59 170 1.0 4.0 0.00 0.06 0.01 70 1016.1
20260502115358 59 225 1.0 6.0 0.00 0.06 0.01 69 1016.2
20260502115158 59 136 1.0 6.0 0.00 0.06 0.01 69 1016.1
20260502114959 59 184 1.0 6.0 0.00 0.06 0.01 70 1016.1
20260502114758 59 171 3.0 6.0 0.00 0.06 0.01 69 1016.1
20260502114358 59 101 1.0 3.0 0.00 0.06 0.01 69 1016.1
20260502114157 59 148 0.0 1.0 0.00 0.06 0.01 70 1016.2
20260502113758 59 20 0.0 3.0 0.00 0.06 0.01 70 1016.3
20260502113558 59 159 0.0 4.0 0.00 0.06 0.01 71 1016.2
20260502113358 59 159 0.0 4.0 0.00 0.06 0.01 70 1016.3
20260502113158 58 160 0.0 4.0 0.00 0.06 0.01 71 1016.3
20260502112958 58 150 1.0 4.0 0.00 0.06 0.01 71 1016.3
20260502112758 58 129 1.0 4.0 0.00 0.06 0.01 72 1016.3
20260502112559 58 167 0.0 4.0 0.00 0.06 0.01 72 1016.3
20260502112359 58 214 1.0 4.0 0.00 0.06 0.01 72 1016.2
20260502112200 58 254 1.0 2.0 0.00 0.06 0.01 72 1016.4
20260502111959 58 338 0.0 1.0 0.00 0.06 0.01 72 1016.3
20260502111759 58 138 0.0 3.0 0.00 0.06 0.01 73 1016.3
20260502111558 57 141 0.0 5.0 0.00 0.06 0.01 74 1016.3
20260502111359 57 141 0.0 5.0 0.00 0.06 0.01 75 1016.3
20260502111158 57 189 1.0 5.0 0.00 0.06 0.01 74 1016.3
20260502111000 57 110 2.0 5.0 0.00 0.06 0.01 74 1016.4
20260502110758 57 109 1.0 5.0 0.00 0.06 0.01 75 1016.3
20260502110559 57 145 1.0 6.0 0.00 0.06 0.01 75 1016.4
20260502110357 57 162 2.0 6.0 0.00 0.06 0.01 75 1016.4
20260502110200 57 154 2.0 6.0 0.00 0.06 0.01 76 1016.4
20260502110006 57 168 4.0 6.0 0.00 0.06 0.01 74 1016.5
20260502105758 57 173 1.0 4.0 0.00 0.06 0.01 75 1016.5
20260502105558 57 200 1.0 3.0 0.00 0.06 0.01 75 1016.5
20260502105358 57 179 0.0 0.0 0.00 0.06 0.01 75 1016.5
20260502105157 57 248 0.0 0.0 0.00 0.06 0.01 75 1016.6
20260502104959 57 70 0.0 0.0 0.00 0.06 0.01 75 1016.6
20260502104759 57 70 0.0 0.0 0.00 0.06 0.01 75 1016.6
20260502104359 57 3 0.0 2.0 0.00 0.06 0.01 75 1016.5
20260502104158 57 328 0.0 2.0 0.00 0.06 0.01 75 1016.5
20260502104000 57 317 0.0 2.0 0.00 0.06 0.01 76 1016.5
20260502103757 56 168 0.0 2.0 0.00 0.06 0.01 76 1016.5
20260502103357 56 317 0.0 4.0 0.00 0.06 0.01 76 1016.5
20260502102958 56 347 0.0 4.0 0.00 0.06 0.01 76 1016.5
20260502102759 56 347 1.0 4.0 0.00 0.06 0.01 77 1016.6
20260502102558 56 320 1.0 4.0 0.00 0.06 0.01 77 1016.7
20260502102359 56 328 1.0 3.0 0.00 0.06 0.01 77 1016.7
20260502102158 56 295 0.0 2.0 0.00 0.06 0.01 77 1016.8
20260502102000 57 282 1.0 3.0 0.00 0.06 0.01 76 1016.9
20260502101758 57 150 0.0 3.0 0.00 0.06 0.01 76 1016.8
20260502101559 57 160 0.0 3.0 0.00 0.06 0.01 76 1016.8
20260502101358 57 183 1.0 3.0 0.00 0.06 0.01 76 1016.8
20260502101159 57 139 1.0 3.0 0.00 0.06 0.01 76 1016.9
20260502100958 57 205 1.0 2.0 0.00 0.06 0.01 76 1016.9
20260502100759 57 146 0.0 1.0 0.00 0.06 0.01 77 1016.9
20260502100557 56 237 0.0 2.0 0.00 0.06 0.01 77 1016.8
20260502100401 56 255 0.0 2.0 0.00 0.06 0.01 76 1016.8
20260502091158 54 143 0.0 0.0 0.00 0.06 0.01 87 1017.0
20260502090958 54 168 0.0 0.0 0.00 0.06 0.01 87 1017.0
20260502090757 54 167 0.0 0.0 0.00 0.06 0.01 87 1017.1
20260502090557 54 150 0.0 0.0 0.00 0.06 0.01 88 1017.1
20260502090357 53 154 0.0 0.0 0.00 0.06 0.01 88 1017.1
20260502090157 53 212 0.0 0.0 0.00 0.06 0.01 89 1017.3
20260502071157 48 154 0.0 2.0 0.00 0.06 0.01 97 1017.3
20260502070958 48 136 1.0 2.0 0.00 0.06 0.01 97 1017.2
20260502070757 48 163 1.0 2.0 0.00 0.06 0.01 97 1017.3
20260502070557 48 191 1.0 2.0 0.00 0.06 0.01 97 1017.3
20260502070357 48 146 0.0 3.0 0.00 0.06 0.01 97 1017.3
20260502070158 48 154 0.0 3.0 0.00 0.06 0.01 97 1017.3
20260502070001 48 142 0.0 3.0 0.00 0.06 0.01 97 1017.3
20260502065759 48 141 0.0 3.0 0.00 0.06 0.01 97 1017.3
20260502065557 48 139 1.0 3.0 0.00 0.06 0.01 97 1017.2
20260502065359 48 130 1.0 2.0 0.00 0.06 0.01 98 1017.3
20260502065157 48 95 0.0 0.0 0.00 0.06 0.01 98 1017.3
20260502065000 48 115 0.0 0.0 0.00 0.06 0.01 98 1017.2
20260502064759 48 113 0.0 0.0 0.00 0.06 0.01 98 1017.2
20260502064357 47 113 0.0 0.0 0.00 0.06 0.01 97 1017.1
20260502064158 47 113 0.0 0.0 0.00 0.06 0.01 98 1017.2
20260502064000 47 124 0.0 0.0 0.00 0.06 0.01 98 1017.3
20260502063757 47 124 0.0 0.0 0.00 0.06 0.01 98 1017.1
20260502063358 47 107 0.0 0.0 0.00 0.06 0.01 98 1017.2
20260502063159 47 102 0.0 0.0 0.00 0.06 0.01 98 1017.2
20260502062958 47 102 0.0 0.0 0.00 0.06 0.01 98 1017.3
20260502062558 47 102 0.0 0.0 0.00 0.06 0.01 98 1017.2
20260502062359 47 102 0.0 0.0 0.00 0.06 0.01 98 1017.2
20260502062000 46 102 0.0 0.0 0.00 0.06 0.01 98 1017.2
20260502061757 46 102 0.0 0.0 0.00 0.06 0.01 98 1017.3
20260502061559 46 102 0.0 0.0 0.00 0.06 0.01 98 1017.2
20260502061357 46 102 0.0 0.0 0.00 0.06 0.01 98 1017.2
20260502061157 46 119 0.0 0.0 0.00 0.06 0.01 98 1017.2
20260502060958 46 119 0.0 0.0 0.00 0.06 0.01 98 1017.3
20260502060758 46 117 0.0 0.0 0.00 0.06 0.01 98 1017.1
20260502060557 46 117 0.0 0.0 0.00 0.06 0.01 97 1017.2
20260502060157 45 118 0.0 0.0 0.00 0.06 0.01 97 1017.3
20260502060000 45 118 0.0 0.0 0.00 0.06 0.01 97 1017.2
20260502055759 45 118 0.0 0.0 0.00 0.06 0.01 97 1017.1
20260502055558 45 118 0.0 0.0 0.00 0.06 0.01 97 1017.2
20260502055359 45 118 0.0 0.0 0.00 0.06 0.01 97 1017.1
20260502055157 45 118 0.0 0.0 0.00 0.06 0.01 97 1017.1
20260502054758 45 123 0.0 0.0 0.00 0.06 0.01 97 1017.3
20260502054559 44 123 0.0 0.0 0.00 0.06 0.01 97 1017.3
20260502054357 44 123 0.0 0.0 0.00 0.06 0.01 97 1017.3
20260502054200 44 123 0.0 0.0 0.00 0.06 0.01 97 1017.3
20260502053958 44 70 0.0 0.0 0.00 0.06 0.01 97 1017.2
20260502053757 44 70 0.0 0.0 0.00 0.06 0.01 97 1017.2
20260502053557 44 70 0.0 0.0 0.00 0.06 0.01 97 1017.2
20260502053357 44 70 0.0 0.0 0.00 0.06 0.01 97 1017.2
20260502052958 44 70 0.0 0.0 0.01 0.06 0.01 97 1017.1
20260502052558 44 63 0.0 0.0 0.01 0.06 0.01 97 1017.1
20260502052358 43 20 0.0 0.0 0.01 0.06 0.01 97 1017.0
20260502052157 43 19 0.0 0.0 0.01 0.06 0.01 97 1017.1
20260502051959 43 19 0.0 0.0 0.01 0.06 0.01 97 1017.2
20260502051757 43 19 0.0 0.0 0.01 0.06 0.01 97 1017.1
20260502051559 43 19 0.0 0.0 0.01 0.06 0.01 97 1017.1
20260502051358 43 19 0.0 0.0 0.01 0.06 0.01 97 1017.4
20260502051159 43 19 0.0 0.0 0.01 0.06 0.01 97 1017.1
20260502050959 43 19 0.0 0.0 0.01 0.06 0.01 97 1017.1
20260502050759 43 18 0.0 0.0 0.01 0.06 0.01 97 1017.2
20260502050558 43 19 0.0 0.0 0.01 0.06 0.01 97 1017.1
20260502050359 43 19 0.0 0.0 0.01 0.06 0.01 97 1017.1
20260502050157 43 19 0.0 0.0 0.01 0.06 0.01 97 1017.2
20260502050002 43 18 0.0 0.0 0.01 0.06 0.01 97 1017.2
20260502045757 43 19 0.0 0.0 0.01 0.06 0.01 97 1017.2
20260502045558 43 19 0.0 0.0 0.01 0.06 0.01 97 1017.2
20260502045357 43 11 0.0 0.0 0.01 0.06 0.01 97 1017.3
20260502045157 43 11 0.0 0.0 0.01 0.06 0.01 97 1017.2
20260502044958 43 11 0.0 0.0 0.01 0.06 0.01 97 1017.3
20260502044757 43 8 0.0 0.0 0.01 0.06 0.01 97 1017.2
20260502044557 43 8 0.0 0.0 0.01 0.06 0.01 97 1017.1
20260502044357 43 8 0.0 0.0 0.01 0.06 0.01 97 1017.3
20260502044157 43 8 0.0 0.0 0.01 0.06 0.01 97 1017.2
20260502043959 43 8 0.0 0.0 0.01 0.06 0.01 97 1017.2
20260502043759 43 8 0.0 0.0 0.01 0.06 0.01 97 1017.2
20260502043559 43 8 0.0 0.0 0.01 0.06 0.01 97 1017.1
20260502042959 43 8 0.0 0.0 0.00 0.05 0.00 97 1017.1
20260502042557 43 8 0.0 0.0 0.00 0.05 0.00 97 1017.1
20260502042157 43 8 0.0 0.0 0.00 0.05 0.00 96 1017.1
20260502042000 43 8 0.0 0.0 0.00 0.05 0.00 96 1017.2
20260502041757 43 8 0.0 0.0 0.00 0.05 0.00 96 1017.2
20260502041559 43 8 0.0 0.0 0.00 0.05 0.00 97 1017.2
20260502041357 43 8 0.0 0.0 0.00 0.05 0.00 97 1017.3
20260502040958 44 8 0.0 0.0 0.00 0.05 0.00 97 1017.3
20260502040758 44 8 0.0 0.0 0.00 0.05 0.00 97 1017.3
20260502040557 44 8 0.0 0.0 0.00 0.05 0.00 97 1017.4
20260502040359 44 8 0.0 0.0 0.00 0.05 0.00 97 1017.3
20260502040157 44 8 0.0 0.0 0.00 0.05 0.00 97 1017.2
20260502040002 44 8 0.0 0.0 0.00 0.05 0.00 97 1017.4
20260502035757 44 8 0.0 0.0 0.00 0.05 0.00 97 1017.4
20260502035358 44 8 0.0 0.0 0.00 0.05 0.00 97 1017.4
20260502035158 44 8 0.0 0.0 0.00 0.05 0.00 97 1017.3
20260502034757 44 8 0.0 0.0 0.00 0.05 0.00 97 1017.3
20260502034557 44 8 0.0 0.0 0.00 0.05 0.00 97 1017.4
20260502034358 44 8 0.0 0.0 0.00 0.05 0.00 97 1017.3
20260502034158 44 8 0.0 0.0 0.00 0.05 0.00 97 1017.3
20260502033958 44 8 0.0 0.0 0.00 0.05 0.00 97 1017.3
20260502033757 44 8 0.0 0.0 0.00 0.05 0.00 97 1017.4
20260502033558 44 8 0.0 0.0 0.00 0.05 0.00 97 1017.3
20260502033359 44 8 0.0 0.0 0.00 0.05 0.00 97 1017.3
20260502033159 44 8 0.0 0.0 0.00 0.05 0.00 96 1017.3
20260502032959 44 8 0.0 0.0 0.00 0.05 0.00 96 1017.4
20260502032759 45 8 0.0 0.0 0.00 0.05 0.00 96 1017.3
20260502032558 45 8 0.0 0.0 0.00 0.05 0.00 96 1017.4
20260502032359 45 8 0.0 0.0 0.00 0.05 0.00 96 1017.4
20260502032158 45 8 0.0 0.0 0.00 0.05 0.00 97 1017.3
20260502032000 45 8 0.0 0.0 0.00 0.05 0.00 97 1017.3
20260502031758 45 8 0.0 0.0 0.00 0.05 0.00 97 1017.3
20260502031600 45 8 0.0 0.0 0.00 0.05 0.00 97 1017.3
20260502031358 45 8 0.0 0.0 0.00 0.05 0.00 97 1017.4
20260502030959 45 8 0.0 0.0 0.00 0.05 0.00 97 1017.3
20260502030759 45 8 0.0 0.0 0.00 0.05 0.00 97 1017.3
20260502030558 45 8 0.0 0.0 0.00 0.05 0.00 97 1017.3
20260502030400 45 8 0.0 0.0 0.00 0.05 0.00 97 1017.3
20260502030157 45 8 0.0 0.0 0.00 0.05 0.00 97 1017.2
20260502025757 46 8 0.0 0.0 0.00 0.05 0.00 97 1017.3
20260502025557 46 8 0.0 0.0 0.00 0.05 0.00 97 1017.2
20260502025358 46 8 0.0 0.0 0.00 0.05 0.00 97 1017.3
20260502025158 46 8 0.0 0.0 0.00 0.05 0.00 97 1017.2
20260502024959 46 8 0.0 0.0 0.00 0.05 0.00 97 1017.3
20260502024758 46 8 0.0 0.0 0.00 0.05 0.00 97 1017.3
20260502024558 46 8 0.0 0.0 0.00 0.05 0.00 97 1017.3
20260502024200 46 8 0.0 0.0 0.00 0.05 0.00 96 1017.3
20260502023759 46 8 0.0 0.0 0.00 0.05 0.00 96 1017.3
20260502023359 46 8 0.0 0.0 0.00 0.05 0.00 97 1017.4
20260502023158 46 8 0.0 0.0 0.00 0.05 0.00 97 1017.5
20260502023000 46 8 0.0 0.0 0.00 0.05 0.00 97 1017.5
20260502022759 46 8 0.0 0.0 0.00 0.05 0.00 97 1017.4
20260502022558 46 8 0.0 0.0 0.00 0.05 0.00 97 1017.5
20260502022359 46 8 0.0 0.0 0.00 0.05 0.00 97 1017.4
20260502022158 46 8 0.0 0.0 0.00 0.05 0.00 97 1017.4
20260502022001 46 8 0.0 0.0 0.00 0.05 0.00 97 1017.5
20260502021758 46 8 0.0 0.0 0.00 0.05 0.00 97 1017.5
20260502021559 47 9 0.0 0.0 0.00 0.05 0.00 97 1017.6
20260502021357 47 9 0.0 0.0 0.00 0.05 0.00 97 1017.5
20260502020958 47 9 0.0 1.0 0.00 0.05 0.00 97 1017.5
20260502020759 47 9 0.0 1.0 0.00 0.05 0.00 97 1017.5
20260502020557 47 9 0.0 1.0 0.00 0.05 0.00 97 1017.6
20260502020400 47 10 0.0 1.0 0.00 0.05 0.00 97 1017.7
20260502020158 47 19 0.0 0.0 0.00 0.05 0.00 97 1017.7
20260502020005 47 19 0.0 0.0 0.00 0.05 0.00 97 1017.6
20260502015758 47 19 0.0 0.0 0.00 0.05 0.00 97 1017.7
20260502015600 47 20 0.0 0.0 0.00 0.05 0.00 97 1017.7
20260502015358 47 20 0.0 0.0 0.00 0.05 0.00 97 1017.7
20260502014959 47 20 0.0 0.0 0.00 0.05 0.00 97 1017.8
20260502014759 47 20 0.0 0.0 0.00 0.05 0.00 97 1017.7
20260502014557 47 20 0.0 0.0 0.00 0.05 0.00 97 1017.8
20260502014400 47 20 0.0 0.0 0.00 0.05 0.00 97 1017.8
20260502014157 47 20 0.0 0.0 0.00 0.05 0.00 97 1017.8
20260502014000 48 20 0.0 0.0 0.00 0.05 0.00 97 1017.9
20260502013757 48 20 0.0 0.0 0.00 0.05 0.00 97 1017.8
20260502013559 48 20 0.0 0.0 0.00 0.05 0.00 97 1017.8
20260502013357 48 20 0.0 0.0 0.00 0.05 0.00 97 1017.9
20260502013200 48 20 0.0 0.0 0.00 0.05 0.00 97 1018.0
20260502012958 47 20 0.0 0.0 0.00 0.05 0.00 97 1018.1
20260502012800 47 20 0.0 0.0 0.00 0.05 0.00 97 1018.0
20260502012157 47 20 0.0 0.0 0.00 0.05 0.00 97 1018.0
20260502012000 47 20 0.0 0.0 0.00 0.05 0.00 97 1018.1
20260502011757 47 20 0.0 0.0 0.00 0.05 0.00 97 1018.1
20260502011559 47 20 0.0 0.0 0.00 0.05 0.00 97 1018.0
20260502011358 47 20 0.0 0.0 0.00 0.05 0.00 97 1018.0
20260502010558 47 20 0.0 0.0 0.00 0.05 0.00 96 1018.2
20260502010400 47 20 0.0 0.0 0.00 0.05 0.00 96 1018.1
20260502005757 48 340 0.0 0.0 0.00 0.05 0.00 97 1018.3
20260502005356 48 340 0.0 0.0 0.00 0.05 0.00 97 1018.3
20260502005156 48 341 0.0 0.0 0.00 0.05 0.00 96 1018.3
20260502004957 48 340 0.0 0.0 0.00 0.05 0.00 96 1018.2
20260502004756 48 340 0.0 0.0 0.00 0.05 0.00 96 1018.2
20260502004557 48 340 0.0 0.0 0.00 0.05 0.00 96 1018.3
20260502004157 48 340 0.0 0.0 0.00 0.05 0.00 96 1018.2
20260502003959 49 340 0.0 0.0 0.00 0.05 0.00 96 1018.3
20260502003756 49 340 0.0 0.0 0.00 0.05 0.00 96 1018.2
20260502003558 49 340 0.0 0.0 0.00 0.05 0.00 96 1018.2
20260502003358 49 340 0.0 0.0 0.00 0.05 0.00 96 1018.3
20260502003158 49 340 0.0 0.0 0.00 0.05 0.00 96 1018.3
20260502002957 49 340 0.0 0.0 0.00 0.05 0.00 96 1018.2
20260502002758 49 340 0.0 0.0 0.00 0.05 0.00 96 1018.3
20260502002557 49 340 0.0 0.0 0.00 0.05 0.00 96 1018.4
20260502002358 49 340 0.0 0.0 0.00 0.05 0.00 96 1018.4
20260502002157 49 340 0.0 0.0 0.00 0.05 0.00 96 1018.3
20260502002000 50 340 0.0 0.0 0.00 0.05 0.00 96 1018.3
20260502001756 50 340 0.0 3.0 0.00 0.05 0.00 96 1018.4
20260502001558 50 340 0.0 3.0 0.00 0.05 0.00 97 1018.4
20260502001158 50 340 0.0 3.0 0.00 0.05 0.00 97 1018.4
20260502000957 50 340 1.0 3.0 0.00 0.05 0.00 96 1018.5
20260502000758 50 11 0.0 0.0 0.00 0.05 0.00 96 1018.5
20260502000358 50 11 0.0 0.0 0.00 0.05 0.00 96 1018.5
20260502000158 50 11 0.0 0.0 0.00 0.05 0.00 97 1018.4
20260501235757 50 11 0.0 0.0 0.00 0.05 0.00 96 1018.5
20260501235558 50 11 0.0 0.0 0.00 0.05 0.00 96 1018.4
20260501235357 50 11 0.0 0.0 0.00 0.05 0.00 96 1018.5
20260501235158 50 11 0.0 0.0 0.00 0.05 0.00 96 1018.5
20260501234957 50 11 0.0 0.0 0.00 0.05 0.00 96 1018.4
20260501234556 51 11 0.0 0.0 0.00 0.05 0.00 97 1018.4
20260501234356 51 11 0.0 0.0 0.00 0.05 0.00 97 1018.4
20260501234156 51 11 0.0 0.0 0.00 0.05 0.00 97 1018.5
20260501233957 51 11 0.0 0.0 0.00 0.05 0.00 97 1018.5
20260501233556 51 11 0.0 0.0 0.00 0.05 0.00 97 1018.4
20260501233356 51 11 0.0 0.0 0.00 0.05 0.00 97 1018.4
20260501233158 51 11 0.0 0.0 0.00 0.05 0.00 97 1018.4
20260501232957 50 11 0.0 0.0 0.00 0.05 0.00 96 1018.5
20260501232757 51 11 0.0 0.0 0.00 0.05 0.00 96 1018.5
20260501232556 50 11 0.0 0.0 0.00 0.05 0.00 96 1018.5
20260501232400 50 11 0.0 0.0 0.00 0.05 0.00 96 1018.5
20260501232156 51 11 0.0 0.0 0.00 0.05 0.00 96 1018.6
20260501231959 51 11 0.0 0.0 0.00 0.05 0.00 96 1018.5
20260501231558 51 11 0.0 0.0 0.00 0.05 0.00 97 1018.6
20260501231356 51 11 0.0 0.0 0.00 0.05 0.00 97 1018.6
20260501231158 51 11 0.0 0.0 0.00 0.05 0.00 97 1018.6
20260501230957 51 11 0.0 0.0 0.00 0.05 0.00 97 1018.6
20260501230556 51 11 0.0 0.0 0.00 0.05 0.00 96 1018.5
20260501230358 51 11 0.0 0.0 0.00 0.05 0.00 96 1018.5
20260501230159 51 11 0.0 0.0 0.00 0.05 0.00 96 1018.6
20260501230005 51 11 0.0 0.0 0.00 0.05 0.00 96 1018.6
20260501225759 51 11 0.0 0.0 0.00 0.05 0.05 96 1018.5
20260501225159 51 11 0.0 0.0 0.00 0.05 0.05 96 1018.6
20260501225000 51 11 0.0 0.0 0.00 0.05 0.05 96 1018.5
20260501224759 51 11 0.0 0.0 0.00 0.05 0.05 96 1018.5
20260501224559 51 11 0.0 0.0 0.00 0.05 0.05 96 1018.5
20260501224359 51 11 0.0 0.0 0.00 0.05 0.05 96 1018.5
20260501224159 51 11 0.0 0.0 0.00 0.05 0.05 96 1018.5
20260501224002 51 11 0.0 0.0 0.00 0.05 0.05 96 1018.5
20260501223801 51 11 0.0 0.0 0.00 0.05 0.05 96 1018.6
20260501223601 51 11 0.0 0.0 0.00 0.05 0.05 96 1018.5
20260501223400 51 11 0.0 0.0 0.00 0.05 0.05 96 1018.5
20260501223201 51 11 0.0 0.0 0.00 0.05 0.05 96 1018.5
20260501222801 51 11 0.0 0.0 0.00 0.05 0.05 96 1018.6
20260501222401 51 11 0.0 0.0 0.00 0.05 0.05 96 1018.6
20260501222159 51 11 0.0 0.0 0.00 0.05 0.05 96 1018.5
20260501222001 51 11 0.0 0.0 0.00 0.05 0.05 96 1018.6
20260501221800 52 11 0.0 0.0 0.00 0.05 0.05 96 1018.6
20260501221601 52 11 0.0 0.0 0.00 0.05 0.05 96 1018.6
20260501221359 52 11 0.0 0.0 0.00 0.05 0.05 96 1018.6
20260501221201 52 11 0.0 0.0 0.00 0.05 0.05 96 1018.6
20260501221000 52 11 0.0 0.0 0.00 0.05 0.05 96 1018.7
20260501220800 52 11 0.0 0.0 0.00 0.05 0.05 96 1018.6
20260501220559 52 11 0.0 0.0 0.00 0.05 0.05 96 1018.7
20260501220401 52 11 0.0 0.0 0.00 0.05 0.05 96 1018.7
20260501220159 52 11 0.0 0.0 0.00 0.05 0.05 96 1018.7
20260501220007 52 11 0.0 0.0 0.00 0.05 0.05 95 1018.7
20260501215759 52 11 0.0 0.0 0.00 0.05 0.05 96 1018.7
20260501215559 52 11 0.0 0.0 0.00 0.05 0.05 96 1018.7
20260501215359 52 11 0.0 0.0 0.00 0.05 0.05 96 1018.7
20260501215159 52 11 0.0 0.0 0.00 0.05 0.05 96 1018.7
20260501214801 52 11 0.0 0.0 0.00 0.05 0.05 96 1018.9
20260501214601 52 11 0.0 0.0 0.00 0.05 0.05 96 1018.8
20260501214400 52 11 0.0 0.0 0.00 0.05 0.05 96 1018.8
20260501214159 52 11 0.0 0.0 0.00 0.05 0.05 96 1018.8
20260501214002 52 11 0.0 0.0 0.00 0.05 0.05 96 1018.8
20260501213559 52 11 0.0 0.0 0.00 0.05 0.05 95 1018.9
20260501213159 52 11 0.0 0.0 0.00 0.05 0.05 95 1018.8
20260501213000 52 11 0.0 0.0 0.00 0.05 0.05 95 1019.0
20260501212559 52 11 0.0 0.0 0.00 0.05 0.05 95 1018.8
20260501212359 52 11 0.0 0.0 0.00 0.05 0.05 95 1018.9
20260501212159 52 11 0.0 0.0 0.00 0.05 0.05 95 1018.8
20260501212000 52 11 0.0 0.0 0.00 0.05 0.05 95 1018.8
20260501211559 52 11 0.0 0.0 0.00 0.05 0.05 95 1018.7
20260501211359 52 11 0.0 0.0 0.00 0.05 0.05 95 1018.7
20260501211200 52 11 0.0 0.0 0.00 0.05 0.05 95 1018.7
20260501211000 52 11 0.0 0.0 0.00 0.05 0.05 95 1018.7
20260501210801 52 11 0.0 0.0 0.00 0.05 0.05 95 1018.8
20260501210559 52 11 0.0 0.0 0.00 0.05 0.05 95 1018.8
20260501210400 52 11 0.0 0.0 0.00 0.05 0.05 95 1018.8
20260501210159 53 11 0.0 0.0 0.00 0.05 0.05 95 1018.8
20260501210004 53 11 0.0 0.0 0.00 0.05 0.05 95 1018.9
20260501205559 53 11 0.0 0.0 0.00 0.05 0.05 95 1018.9
20260501205359 53 11 0.0 0.0 0.00 0.05 0.05 95 1018.9
20260501205159 53 11 0.0 0.0 0.00 0.05 0.05 95 1018.7
20260501205000 53 11 0.0 0.0 0.00 0.05 0.05 95 1018.7
20260501204759 53 11 0.0 0.0 0.00 0.05 0.05 95 1018.8
20260501204359 53 11 0.0 0.0 0.00 0.05 0.05 95 1018.9
20260501204000 53 11 0.0 0.0 0.00 0.05 0.05 95 1018.9
20260501203759 53 354 0.0 0.0 0.00 0.05 0.05 95 1018.9
20260501203601 53 355 0.0 0.0 0.00 0.05 0.05 95 1018.9
20260501203359 53 339 0.0 0.0 0.00 0.05 0.05 95 1018.9
20260501203201 53 339 0.0 0.0 0.00 0.05 0.05 95 1019.0
20260501202959 53 339 0.0 0.0 0.00 0.05 0.05 95 1018.9
20260501202801 53 339 0.0 0.0 0.00 0.05 0.05 95 1018.9
20260501202559 53 339 0.0 0.0 0.00 0.05 0.05 95 1019.0
20260501202401 53 339 0.0 0.0 0.00 0.05 0.05 95 1018.9
20260501202159 53 339 0.0 0.0 0.00 0.05 0.05 95 1018.9
20260501202001 53 339 0.0 0.0 0.00 0.05 0.05 95 1019.0
20260501201759 53 8 0.0 0.0 0.00 0.05 0.05 95 1018.9
20260501201359 53 341 0.0 0.0 0.00 0.05 0.05 95 1018.9
20260501201200 53 341 0.0 0.0 0.00 0.05 0.05 95 1018.9
20260501200959 53 341 0.0 0.0 0.00 0.05 0.05 95 1019.0
20260501200801 53 341 0.0 0.0 0.00 0.05 0.05 95 1019.0
20260501200559 53 341 0.0 0.0 0.00 0.05 0.05 95 1018.9
20260501200401 53 342 0.0 0.0 0.00 0.05 0.05 94 1018.9
20260501200159 53 355 0.0 0.0 0.00 0.05 0.05 94 1018.9
20260501195759 53 20 0.0 0.0 0.01 0.05 0.05 94 1019.0
20260501195559 53 1 0.0 0.0 0.01 0.05 0.05 94 1019.0
20260501195359 53 349 0.0 0.0 0.01 0.05 0.05 94 1019.0
20260501195000 53 349 0.0 0.0 0.02 0.05 0.05 94 1018.9
20260501194759 53 349 0.0 0.0 0.02 0.05 0.05 94 1019.0
20260501194559 53 356 0.0 0.0 0.02 0.05 0.05 94 1018.9
20260501194359 53 356 0.0 0.0 0.02 0.05 0.05 94 1019.0
20260501194159 53 356 0.0 0.0 0.02 0.05 0.05 94 1019.0
20260501194001 53 356 0.0 0.0 0.02 0.05 0.05 94 1019.0
20260501193800 53 359 0.0 0.0 0.02 0.05 0.05 94 1019.0
20260501193602 53 356 0.0 0.0 0.02 0.05 0.05 94 1019.0
20260501193359 53 356 0.0 0.0 0.02 0.05 0.05 94 1019.0
20260501193201 53 356 0.0 0.0 0.02 0.05 0.05 94 1019.1
20260501193000 53 356 0.0 0.0 0.03 0.05 0.05 94 1019.0
20260501192800 53 356 0.0 0.0 0.03 0.05 0.05 94 1019.1
20260501192558 53 356 0.0 0.0 0.03 0.05 0.05 94 1019.1
20260501192401 53 356 0.0 0.0 0.03 0.05 0.05 94 1019.0
20260501192159 53 356 0.0 0.0 0.03 0.05 0.05 94 1019.1
20260501191800 53 357 0.0 0.0 0.03 0.05 0.05 94 1019.0
20260501191359 53 243 0.0 0.0 0.04 0.05 0.05 94 1019.0
20260501191200 53 355 0.0 0.0 0.04 0.05 0.05 94 1019.1
20260501191000 53 355 0.0 0.0 0.04 0.05 0.05 94 1019.0
20260501190559 53 355 0.0 0.0 0.04 0.05 0.05 93 1019.1
20260501190400 53 355 0.0 0.0 0.04 0.05 0.05 93 1019.1
20260501190159 53 355 0.0 0.0 0.04 0.05 0.05 93 1018.9
20260501190004 53 355 0.0 0.0 0.04 0.04 0.04 93 1019.0
20260501185759 53 355 0.0 0.0 0.04 0.04 0.04 93 1019.0
20260501185600 53 355 0.0 0.0 0.04 0.04 0.04 93 1018.9
20260501185359 53 356 0.0 0.0 0.04 0.04 0.04 93 1019.0
20260501185201 53 356 0.0 2.0 0.03 0.03 0.03 93 1019.0
20260501185000 53 356 0.0 2.0 0.03 0.03 0.03 93 1019.0
20260501184559 53 327 0.0 2.0 0.03 0.03 0.03 93 1018.9